Saltar para o conteúdo principal

Tomar, Valdonas

ID 1210724 · 39.6000, -8.3667 mapa

Última leitura · 2026-05-09 19:00 (Europe/Lisbon)

Temperatura
Humidade
94 %
Pressão
Precipitação
0.2 mm
Radiação
879 W/m²
Velocidade do vento
6.8 km/h
Direcção do vento
S · Sul

Histórico de 24 horas

Hora (Europe/Lisbon) Temperatura Humidade Pressão Chuva Vento Direcção
2026-05-09 19:00 94 % 0.2 mm 6.8 km/h S
2026-05-09 18:00 90 % 2.5 mm 4.3 km/h S
2026-05-09 17:00 78 % 0.0 mm 9.7 km/h W
2026-05-09 16:00 74 % 0.2 mm 7.2 km/h SW
2026-05-09 15:00 54 % 0.0 mm 20.5 km/h S
2026-05-09 14:00 58 % 0.0 mm 15.1 km/h SW
2026-05-09 13:00 69 % 0.0 mm 15.8 km/h SW
2026-05-09 12:00 74 % 0.0 mm 15.8 km/h SE
2026-05-09 11:00 82 % 0.0 mm 16.2 km/h SE
2026-05-09 10:00 92 % 0.1 mm 13.7 km/h SE
2026-05-09 09:00 95 % 2.2 mm 11.5 km/h SE
2026-05-09 08:00 92 % 1.7 mm 11.9 km/h SE
2026-05-09 07:00 92 % 0.0 mm 12.6 km/h SE
2026-05-09 06:00 94 % 2.2 mm 9.4 km/h SE
2026-05-09 05:00 89 % 0.0 mm 12.2 km/h SE
2026-05-09 04:00 89 % 0.0 mm 11.2 km/h SE
2026-05-09 03:00 88 % 0.0 mm 7.6 km/h SE
2026-05-09 02:00 86 % 0.0 mm 10.4 km/h SE
2026-05-09 01:00 88 % 0.0 mm 14.4 km/h SE
2026-05-09 00:00 90 % 0.7 mm 10.1 km/h SE
2026-05-08 23:00 96 % 0.3 mm 10.8 km/h SE
2026-05-08 22:00 94 % 2.1 mm 2.9 km/h S
2026-05-08 21:00 81 % 1.3 mm 8.3 km/h S
2026-05-08 20:00 68 % 0.0 mm 2.2 km/h S